SCP
2 2 3 3 2 2 3 3 3 4 5 4 4 3 3 3 3 3 3 3 3 4 5 6 6 5 4 4 4 4 5 5 5 4 2 1 1 0 0 0 1 1 1
2 2 2 2 2 2 2 2 3 4 5 5 5 4 3 3 3 3 3 3 4 5 5 6 6 5 4 4 4 4 5 5 5 3 2 1 1 1 1 0 0 1 1
2 2 2 1 1 2 2 2 3 4 5 5 5 5 4 4 3 3 4 3 4 5 5 4 4 4 4 4 4 4 4 4 4 3 2 1 1 1 1 1 1 1 1
2 1 1 1 1 1 2 2 3 4 4 5 5 5 5 4 4 3 3 4 4 4 4 4 3 3 3 3 4 4 4 4 4 4 3 2 1 1 1 1 1 0 0
1 1 1 1 1 1 2 2 3 3 4 4 5 5 5 4 4 4 4 4 5 5 4 4 4 5 5 5 5 5 4 4 4 4 3 2 1 1 1 1 1 1 0
1 1 1 1 1 1 2 2 3 3 4 5 5 5 5 5 5 5 5 5 5 6 6 6 7 8 9 8 6 6 6 5 4 3 3 2 1 1 1 1 1 1 0
2 2 2 1 1 1 2 2 3 3 4 5 5 5 5 5 5 5 5 5 5 6 7 8 9 10 10 9 8 8 8 6 4 3 3 2 1 1 1 1 1 1 1
2 3 3 2 2 2 2 2 2 3 4 5 6 6 5 4 4 3 3 3 4 5 7 8 8 8 9 9 10 11 10 7 4 3 3 2 2 1 2 2 2 1 1
3 3 4 4 3 2 2 2 2 3 4 5 6 6 5 5 4 3 3 3 4 5 6 7 7 7 9 11 11 10 9 6 4 3 3 3 2 2 2 2 2 1 1
4 4 5 5 4 3 3 3 3 3 4 5 5 5 5 5 5 4 4 4 5 6 7 8 8 7 9 10 9 7 6 4 3 3 3 3 2 2 2 2 2 2 1
4 4 4 4 4 3 3 3 3 3 4 4 5 6 6 5 5 5 5 6 7 8 9 9 8 7 6 6 5 4 3 3 3 3 3 3 2 2 2 2 2 2 2
3 3 4 3 3 3 4 4 4 3 4 4 5 6 6 6 5 5 5 6 7 8 8 7 7 6 5 4 4 3 3 2 2 3 3 3 2 2 3 3 3 3 3
2 3 4 4 4 4 4 5 5 4 4 5 6 6 6 6 5 5 4 4 5 6 6 6 5 5 5 4 4 4 3 3 3 3 3 3 3 3 3 4 4 4 4
2 3 4 5 5 5 5 5 6 6 5 6 7 7 7 6 5 4 4 4 4 4 5 5 5 4 4 4 3 3 3 3 3 3 3 3 3 3 3 3 4 4 3
2 3 4 5 5 5 5 6 7 8 7 7 7 8 7 6 5 5 5 4 4 4 5 5 5 4 3 2 2 3 3 3 3 2 2 2 2 2 2 2 2 2 2
2 3 4 4 4 4 4 6 8 9 8 7 7 7 7 6 5 5 6 6 6 6 6 6 5 4 3 2 2 2 3 3 3 2 2 2 2 1 1 1 1 1 2
2 3 4 4 4 4 5 6 8 8 8 7 6 6 6 6 5 6 6 7 7 7 7 6 5 5 3 2 2 2 3 4 4 3 3 2 2 2 2 1 1 1 1
2 3 4 4 4 5 6 7 7 7 6 5 5 5 6 6 6 7 7 8 9 9 8 6 5 5 4 3 1 2 4 5 4 3 3 3 2 2 2 2 2 2 1
3 3 4 5 5 6 7 7 7 7 6 5 4 4 5 6 7 8 10 12 12 11 9 7 7 6 5 3 2 2 5 6 4 3 2 2 2 2 2 2 3 2 2
3 3 3 4 5 6 6 7 7 7 7 5 4 5 5 6 7 8 11 13 14 13 11 9 8 7 6 4 2 3 5 6 4 3 2 2 2 2 2 2 3 3 3
2 2 3 3 4 5 5 6 6 6 5 5 5 5 5 5 6 8 10 12 13 13 11 11 10 9 7 4 1 2 4 5 5 4 3 2 2 1 1 2 3 3 3
2 2 2 3 3 4 5 5 4 4 5 5 6 6 5 5 6 8 10 11 11 10 9 10 11 10 7 3 1 1 2 3 4 3 2 2 1 0 0 1 2 2 2
3 3 3 3 3 4 5 5 4 4 5 7 7 7 6 7 8 10 10 10 9 7 6 6 7 7 5 2 0 0 0 1 2 2 1 1 0 0 0 0 1 1 2
3 3 3 4 4 4 4 4 4 4 6 8 9 9 9 9 11 11 9 7 6 6 4 4 3 3 2 1 1 0 0 0 1 1 0 0 0 0 0 0 1 1 2
2 3 4 4 4 4 4 3 3 5 7 9 10 10 10 10 10 9 7 5 5 5 4 3 2 2 1 1 1 0 0 0 0 0 1 0 0 0 0 0 1 1 1
2 2 3 4 4 4 4 4 4 5 8 10 11 10 9 8 8 8 6 5 4 4 3 3 3 2 1 1 1 0 0 0 0 0 1 1 0 0 0 0 1 1 1
Wind_Speed
8 7 7 7 7 7 7 7 6 6 5 4 3 3 3 2 2 1 2 3 2 2 2 1 1 2 1 1 1 1 2 1 1 1 1 2 2 1 1 1 1 2 2
8 8 8 8 8 8 7 7 7 6 6 4 3 2 2 2 2 1 2 3 3 3 3 2 2 1 1 1 1 2 1 1 1 2 1 1 3 2 2 2 2 1 1
7 8 9 9 9 9 8 7 7 7 6 5 4 3 3 3 2 2 2 2 3 3 2 2 2 2 2 1 2 2 3 2 1 1 3 2 1 2 3 2 2 2 1
7 7 9 10 9 9 9 8 7 7 6 6 5 5 4 4 3 3 2 3 3 4 3 3 3 2 2 1 3 1 2 2 2 1 1 2 2 2 1 2 3 2 1
7 7 8 9 9 9 8 8 8 7 7 7 6 6 5 4 3 3 3 3 3 4 4 4 3 3 2 2 2 1 2 2 3 2 1 1 1 2 2 1 1 1 1
5 6 7 8 8 8 8 8 8 7 7 7 7 6 5 4 4 4 4 4 3 3 4 4 3 3 3 3 3 2 3 2 2 2 2 2 2 2 1 1 1 1 1
4 6 7 8 8 8 8 8 8 7 7 7 7 6 6 5 5 5 4 4 3 3 4 3 3 3 3 3 3 3 2 2 3 3 2 2 2 2 2 2 1 1 1
3 5 6 6 7 8 8 8 8 8 7 7 7 6 6 5 5 5 4 4 3 3 3 4 4 4 3 3 3 3 3 2 2 3 2 2 2 2 2 2 2 2 2
2 3 4 5 6 7 8 8 8 8 7 7 7 6 6 6 5 5 5 4 3 3 4 4 4 4 4 3 3 2 2 2 3 3 3 3 2 2 2 2 3 3 2
1 2 2 3 4 6 7 7 8 8 7 7 6 5 6 6 5 5 5 4 4 3 4 4 4 4 4 4 3 3 3 3 3 2 2 3 2 2 2 2 3 3 3
1 1 2 3 4 5 6 7 7 7 6 6 6 5 5 5 5 5 5 4 4 4 4 4 4 4 4 4 4 4 4 4 4 3 3 3 2 2 2 2 2 3 3
2 0 1 2 3 5 6 6 6 7 6 6 6 5 5 5 5 5 4 4 4 4 4 4 4 5 4 4 4 5 4 4 4 3 3 3 3 3 3 2 2 2 3
2 1 1 1 1 2 4 5 6 6 6 6 6 5 5 5 5 4 4 4 4 4 4 4 4 4 4 4 5 5 4 4 4 3 3 3 2 2 2 3 3 3 3
2 2 1 0 0 1 2 3 4 4 5 5 5 5 5 5 4 4 4 4 4 4 4 4 4 4 4 4 4 5 4 4 4 3 3 2 2 2 2 2 3 3 3
3 3 2 1 0 1 2 2 3 3 3 4 4 4 4 4 4 4 4 4 4 4 4 4 4 4 3 3 4 4 5 4 4 3 3 2 1 1 2 2 1 2 2
3 3 3 2 1 1 2 2 2 3 3 3 3 3 4 4 4 4 3 4 4 4 4 4 4 3 2 1 1 3 3 3 4 3 3 4 4 3 2 1 2 3 3
3 3 3 2 1 1 1 2 2 3 3 3 3 3 3 3 4 3 3 3 3 3 3 3 3 3 2 2 2 2 3 3 3 3 3 3 2 3 3 4 5 4 4
3 3 2 2 1 1 2 2 3 3 3 3 2 2 3 3 3 3 3 3 3 3 3 3 3 3 3 3 3 2 4 3 3 3 4 3 2 2 3 3 4 4 4
3 2 2 1 1 1 1 2 2 2 3 2 2 2 2 3 3 3 3 3 3 3 3 3 3 3 2 3 3 4 4 3 3 4 3 3 3 1 3 4 4 4 5
2 1 1 1 1 1 1 2 2 2 2 2 2 2 2 3 3 3 3 3 3 3 3 3 2 3 3 3 3 4 4 3 3 3 4 2 2 2 3 5 5 5 5
1 1 0 1 1 1 1 2 1 1 2 2 2 2 2 3 3 2 2 2 2 2 2 2 2 2 2 4 4 3 3 3 3 3 3 2 3 3 4 6 5 5 6
1 1 1 1 1 1 1 1 2 2 2 2 2 2 2 3 2 3 3 3 3 3 3 3 3 2 3 2 3 3 3 4 3 3 2 1 3 3 5 5 4 5 6
0 0 0 1 1 0 1 1 2 2 3 3 2 2 3 2 2 3 3 3 3 3 3 3 3 3 3 4 5 6 5 4 4 2 1 1 3 5 6 7 7 7 6
1 1 1 0 0 0 0 1 2 2 3 3 3 3 3 3 2 2 3 3 3 3 3 3 3 3 2 2 3 4 5 6 5 3 3 5 6 6 5 4 6 6 4
1 1 1 1 1 1 1 2 2 2 3 3 3 3 3 2 2 2 1 2 2 1 2 2 2 2 2 1 1 1 2 2 2 3 4 3 3 4 3 3 3 4 4
1 1 2 2 2 1 1 2 2 2 3 3 3 3 2 2 3 3 2 1 0 1 0 1 2 1 0 1 1 2 2 2 3 4 5 4 4 4 3 4 3 3 4
Wind_Direction
185 178 180 177 172 171 174 182 187 180 190 197 208 206 206 219 218 213 215 223 224 205 232 253 176 241 194 234 210 187 166 180 182 196 139 122 106 79 93 91 81 98 100
183 178 180 181 178 177 180 185 190 189 199 196 211 220 232 226 216 216 198 225 222 220 205 222 231 215 201 202 234 228 243 212 229 281 260 193 155 130 97 109 113 82 92
193 184 186 187 186 185 187 189 193 194 200 198 202 203 208 225 208 209 196 212 217 209 220 203 220 223 231 199 237 242 249 250 225 293 300 301 8 111 125 110 97 84 57
203 193 189 189 192 190 187 188 190 195 195 198 208 211 216 217 216 224 203 198 209 215 207 210 210 228 235 219 238 224 253 251 246 196 293 327 348 304 145 145 119 110 81
207 199 196 194 192 189 187 185 187 191 194 202 206 218 225 222 210 208 198 209 196 210 213 207 205 210 222 226 251 241 256 250 260 252 216 201 192 251 269 166 129 136 109
206 199 196 194 192 189 191 188 186 189 193 199 205 214 224 230 221 209 203 205 195 198 203 206 202 207 215 208 218 222 214 241 263 271 258 248 237 223 234 230 211 178 128
201 195 194 192 192 193 195 193 188 190 194 198 206 210 218 221 221 221 209 218 207 198 192 200 204 210 215 215 208 197 222 219 226 239 241 245 252 270 259 251 249 226 173
193 196 196 194 195 196 197 196 192 193 193 198 204 208 214 219 217 215 224 213 222 214 188 194 201 204 211 213 201 197 199 207 219 228 241 237 233 250 245 250 253 237 207
179 195 192 190 195 197 198 197 193 193 194 198 201 201 208 220 220 210 215 219 214 204 187 196 197 198 202 210 207 197 196 205 218 214 207 227 213 241 247 247 256 262 246
186 197 198 195 197 194 190 192 191 190 191 194 201 196 201 211 215 213 210 213 210 202 188 193 196 197 197 199 202 188 186 205 216 223 226 234 215 223 237 235 240 253 262
278 218 205 198 200 193 188 188 188 188 186 191 195 199 195 200 205 207 206 203 204 196 194 198 202 199 198 199 200 208 198 201 203 209 203 212 238 235 232 228 230 235 239
10 25 171 184 198 196 191 187 188 189 187 185 184 189 194 190 194 198 202 203 200 196 196 203 207 206 202 205 206 208 203 204 199 200 202 210 207 221 242 240 236 236 239
9 8 80 160 187 193 190 188 189 192 190 185 182 178 184 188 194 201 198 199 199 199 198 200 205 210 206 208 209 204 203 200 193 198 203 206 210 224 237 244 237 231 227
3 352 7 18 150 161 172 183 185 188 189 187 183 178 183 188 193 198 196 195 194 193 199 207 207 204 205 209 208 202 203 201 196 198 203 209 210 226 238 237 243 245 243
6 0 354 342 306 162 161 172 176 176 181 187 189 186 186 188 193 197 195 193 191 190 193 201 201 203 209 218 222 212 203 205 203 196 194 183 165 21 302 289 267 249 248
357 357 352 341 302 232 200 179 177 176 177 183 187 182 185 184 186 192 189 184 187 188 191 199 201 200 197 113 253 249 215 211 212 212 207 194 190 177 188 305 324 309 272
358 352 348 337 304 240 214 183 166 170 182 179 183 183 183 173 171 178 173 178 181 176 191 197 194 193 165 137 172 232 230 219 218 218 226 236 186 216 212 203 212 227 245
348 343 340 342 334 177 172 167 158 162 169 162 159 169 180 174 171 174 177 187 188 188 196 199 201 196 159 149 170 217 219 211 213 221 226 233 232 243 262 242 233 238 235
337 333 331 350 31 134 158 162 162 163 162 158 155 169 186 179 174 178 182 187 191 193 196 193 198 195 170 161 184 227 214 203 215 224 222 230 225 204 272 251 241 244 240
343 332 325 93 97 134 166 162 159 160 175 175 164 180 194 191 180 183 188 182 194 195 198 182 195 198 191 171 188 229 229 211 217 214 209 200 237 225 255 252 251 253 259
352 31 69 91 84 124 169 178 179 194 212 205 182 187 200 197 187 183 181 184 196 186 195 182 184 187 182 165 177 223 249 237 235 231 222 178 160 210 237 252 255 261 273
49 66 94 90 87 103 163 194 210 228 233 222 202 195 206 212 185 175 182 190 191 184 187 186 196 184 171 168 165 183 227 282 253 247 247 154 166 225 242 244 253 257 261
351 312 141 109 113 171 181 222 235 236 226 223 214 205 206 211 200 196 192 197 203 210 200 196 200 197 178 165 176 186 201 234 256 271 32 225 219 237 236 229 238 243 247
304 290 251 188 168 263 277 255 245 232 220 217 214 207 203 202 198 215 210 211 213 216 211 215 217 207 198 198 182 184 190 199 216 232 199 201 218 236 250 230 222 235 252
286 286 283 269 238 229 246 242 232 220 219 217 214 212 204 196 199 203 227 236 232 266 251 238 235 229 221 146 30 265 235 244 244 248 236 229 221 227 234 238 237 238 233
259 264 272 279 275 248 239 243 225 221 222 218 213 213 209 200 204 193 182 94 249 101 292 319 299 313 60 149 200 219 228 232 240 244 238 237 241 245 250 253 240 236 248